Location: Newark
(44.3681°N, 100.3364°W)
Time: 02:18:55
(UTC+00:00)

Transit 4A - Visible Passes

Search period start: 23 February 2020 00:00
Search period end: 04 March 2020 00:00
Orbit: 872 x 973 km, 66.8° (Epoch: 22 February)

Date Brightness Start Highest point End Pass type
(mag) Time Alt. Az. Time Alt. Az. Time Alt. Az.
24 Feb 10.2 12:30:58 10° N 12:33:12 12° NNE 12:35:26 10° NE visible
25 Feb 10.1 12:39:42 10° N 12:43:03 15° NNE 12:46:25 10° ENE visible
26 Feb 10.0 12:48:39 10° N 12:52:49 20° NE 12:57:01 10° E visible
28 Feb 10.4 11:22:42 10° N 11:23:50 10° NNE 11:24:58 10° NNE visible
29 Feb 10.3 11:31:03 10° N 11:33:44 13° NNE 11:36:26 10° NE visible
01 Mar 10.2 11:39:53 10° N 11:43:34 17° NNE 11:47:16 10° ENE visible
02 Mar 10.0 11:48:52 10° N 11:53:18 22° NE 11:57:46 10° E visible
03 Mar 9.7 11:57:56 10° NNW 12:02:57 28° NE 12:08:01 10° ESE visible
